CW8398 Stockholm SE current weather conditions

sailwx.info

Wind from 243

Air temperature 14.4° C
Dewpoint 8.4° C

Last reported at 2020-Aug-05 04:03 UTC.
Time now 2020-Aug-05 04:56 UTC

Location: N 59°22' E 018°39'.
View on Google Maps.

See reports from other nearby stations

  
Tides and Currents Weather Stations Pressure Air Temp Water Temp Dewpoint Dewpoint Depression Visibility Wind Speed Wind Dir Waves Ship Positions
date/time (UTC)wind fromknots sea level pressurealtimeterstation pressurevisibilityair tempwater tempwave heightnotes
2020-Aug-05 04:03 243 14.4
2020-Aug-05 03:58 243 14.4
2020-Aug-05 03:53 242 14.4
2020-Aug-05 03:48 242 15.0
2020-Aug-05 03:43 241 15.0
2020-Aug-05 03:38 241 15.0
2020-Aug-05 03:28 240 15.0
2020-Aug-05 03:23 277 15.0
2020-Aug-05 03:18 278 15.6
2020-Aug-05 03:13 259 0 gusting 2 15.6
2020-Aug-05 03:03 273 15.6
2020-Aug-05 02:53 275 15.6
2020-Aug-05 02:48 275 15.6
2020-Aug-05 02:43 276 15.6
2020-Aug-05 02:38 277 15.6
2020-Aug-05 02:28 244 15.6
2020-Aug-05 02:18 263 0 gusting 5 15.0
2020-Aug-05 02:13 254 15.0
2020-Aug-05 02:08 254 15.0
2020-Aug-05 02:03 254 15.0
2020-Aug-05 01:58 253 15.0
2020-Aug-05 01:53 253 0 gusting 2 15.0
2020-Aug-05 01:48 265 15.0
2020-Aug-05 01:43 266 0 gusting 5 14.4
2020-Aug-05 01:38 271 14.4
2020-Aug-05 01:33 271 13.9
2020-Aug-05 01:18 265 13.3
2020-Aug-05 01:08 265 12.8
2020-Aug-05 00:58 266 13.3
2020-Aug-05 00:53 266 13.3
2020-Aug-05 00:48 266 13.3
2020-Aug-05 00:43 266 13.9
2020-Aug-05 00:38 266 13.9
2020-Aug-05 00:23 265 15.6
2020-Aug-05 00:08 266 16.1
2020-Aug-05 00:03 265 16.1
2020-Aug-04 23:58 267 16.1
2020-Aug-04 23:53 276 16.1
2020-Aug-04 23:48 271 16.1
2020-Aug-04 23:43 268 16.1
2020-Aug-04 23:38 264 0 gusting 2 16.1
2020-Aug-04 23:33 257 16.1
2020-Aug-04 23:28 279 0 gusting 2 16.1
2020-Aug-04 23:23 263 0 gusting 5 16.1
2020-Aug-04 23:13 248 0 gusting 6 16.1
2020-Aug-04 23:08 265 0 gusting 2 16.1
2020-Aug-04 23:03 254 16.1
2020-Aug-04 22:58 248 0 gusting 5 16.1
2020-Aug-04 22:53 261 16.1
2020-Aug-04 22:48 221 16.1
2020-Aug-04 22:43 248 16.1
2020-Aug-04 22:38 254 16.1
2020-Aug-04 22:28 254 16.1
2020-Aug-04 22:23 273 0 gusting 5 16.1
2020-Aug-04 22:18 265 16.1
2020-Aug-04 22:08 265 16.1
2020-Aug-04 22:03 248 0 gusting 6 16.1
2020-Aug-04 21:58 236 0 gusting 4 16.1
2020-Aug-04 21:48 234 0 gusting 2 16.1
2020-Aug-04 21:43 203 0 gusting 4 16.1
2020-Aug-04 21:38 227 0 gusting 5 16.1
2020-Aug-04 21:33 223 2 gusting 7 16.1
2020-Aug-04 21:23 273 15.6
2020-Aug-04 21:18 217 15.6
2020-Aug-04 21:13 224 15.6
2020-Aug-04 21:08 201 15.0
2020-Aug-04 20:53 199 0 gusting 5 15.6
2020-Aug-04 20:48 206 15.6
2020-Aug-04 20:38 203 0 gusting 4 15.0
2020-Aug-04 20:33 194 1 gusting 4 15.0
2020-Aug-04 20:28 187 1 gusting 4 15.0
2020-Aug-04 20:23 188 15.0
2020-Aug-04 20:18 190 0 gusting 2 15.6
2020-Aug-04 20:13 172 15.6
2020-Aug-04 19:53 162 1 gusting 5 15.6
2020-Aug-04 19:48 167 2 gusting 4 15.6
2020-Aug-04 19:43 171 1 gusting 4 16.1
2020-Aug-04 19:38 175 0 gusting 2 16.1
2020-Aug-04 19:33 175 16.7
2020-Aug-04 19:28 175 16.7
2020-Aug-04 19:23 177 0 gusting 4 17.2
2020-Aug-04 19:03 179 0 gusting 6 17.8
2020-Aug-04 18:58 192 17.8
2020-Aug-04 18:48 203 18.3
2020-Aug-04 18:43 205 0 gusting 6 18.3
2020-Aug-04 18:33 178 1 gusting 6 18.3
2020-Aug-04 18:28 198 3 gusting 7 18.9
2020-Aug-04 18:23 18.9
2020-Aug-04 18:18 194 0 gusting 4 19.4
2020-Aug-04 18:03 176 4 gusting 8 19.4
2020-Aug-04 17:58 172 0 gusting 4 19.4
2020-Aug-04 17:48 160 3 gusting 8 20.0
2020-Aug-04 17:43 184 1 gusting 6 20.0
2020-Aug-04 17:33 163 0 gusting 7 20.0
2020-Aug-04 17:28 145 0 gusting 10 20.0
2020-Aug-04 17:23 162 0 gusting 6 20.6
2020-Aug-04 17:08 171 0 gusting 5 21.1
2020-Aug-04 17:03 175 0 gusting 5 21.1
2020-Aug-04 16:58 205 0 gusting 6 21.1
2020-Aug-04 16:53 187 4 gusting 6 21.7
2020-Aug-04 16:48 183 2 gusting 7 21.7
2020-Aug-04 16:43 158 2 gusting 8 22.2
2020-Aug-04 16:33 123 0 gusting 5 22.8
2020-Aug-04 16:18 329 23.3
2020-Aug-04 16:08 296 23.3
2020-Aug-04 16:03 295 23.3
2020-Aug-04 15:58 284 23.3
2020-Aug-04 15:53 280 23.3
2020-Aug-04 15:48 280 23.3
2020-Aug-04 15:43 279 23.3
2020-Aug-04 15:38 279 23.3
2020-Aug-04 15:33 320 23.3
2020-Aug-04 15:23 320 23.3
2020-Aug-04 15:13 286 23.3
2020-Aug-04 15:03 286 23.3
2020-Aug-04 14:58 286 23.3
2020-Aug-04 14:48 286 23.3
2020-Aug-04 14:43 298 23.3
2020-Aug-04 14:38 323 23.3
2020-Aug-04 14:33 296 23.3
2020-Aug-04 14:18 298 2 gusting 6 23.3
2020-Aug-04 14:13 262 1 gusting 6 23.3
2020-Aug-04 14:08 311 0 gusting 6 22.8
2020-Aug-04 14:03 287 1 gusting 6 22.8
2020-Aug-04 13:48 293 2 gusting 7 22.8
2020-Aug-04 13:43 325 0 gusting 4 22.8
2020-Aug-04 13:38 339 0 gusting 2 22.8
2020-Aug-04 13:28 276 0 gusting 2 22.8
2020-Aug-04 13:18 355 23.3
2020-Aug-04 13:13 013 22.8
2020-Aug-04 13:08 280 22.8
2020-Aug-04 13:03 349 4 gusting 8 22.8
2020-Aug-04 12:48 350 1 gusting 7 22.2
2020-Aug-04 12:43 292 2 gusting 8 22.2
2020-Aug-04 12:38 330 2 gusting 5 22.2
2020-Aug-04 12:33 327 2 gusting 4 22.2
2020-Aug-04 12:28 017 2 gusting 6 22.2
2020-Aug-04 12:23 351 3 gusting 8 21.7
2020-Aug-04 12:18 355 2 gusting 6 22.2
2020-Aug-04 12:13 22.2
2020-Aug-04 12:08 338 0 gusting 5 22.2
2020-Aug-04 12:03 266 3 gusting 6 21.7
2020-Aug-04 11:58 269 0 gusting 2 21.7
2020-Aug-04 11:48 331 0 gusting 5 21.7
2020-Aug-04 11:33 350 2 gusting 5 22.2
2020-Aug-04 11:13 329 2 gusting 6 21.7
2020-Aug-04 11:03 290 2 gusting 7 21.7
2020-Aug-04 10:48 009 21.7
2020-Aug-04 10:43 344 0 gusting 2 21.1
2020-Aug-04 10:38 306 2 gusting 7 21.1
2020-Aug-04 10:28 275 2 gusting 10 21.1
2020-Aug-04 10:23 291 21.1
2020-Aug-04 10:18 344 0 gusting 5 21.1
2020-Aug-04 10:13 286 1 gusting 5 20.6
2020-Aug-04 10:08 288 20.6
2020-Aug-04 10:03 296 1 gusting 6 20.6
2020-Aug-04 09:58 300 1 gusting 6 20.6
2020-Aug-04 09:53 286 1 gusting 7 20.6
2020-Aug-04 09:48 299 1 gusting 6 20.0
2020-Aug-04 09:38 280 3 gusting 6 20.0
2020-Aug-04 09:33 284 0 gusting 6 20.0
2020-Aug-04 09:28 268 2 gusting 6 20.0
2020-Aug-04 09:23 334 2 gusting 8 20.0
2020-Aug-04 09:13 292 1 gusting 7 20.0
2020-Aug-04 09:08 288 4 gusting 7 19.4
2020-Aug-04 08:48 264 1 gusting 4 19.4
2020-Aug-04 08:38 340 1 gusting 6 18.9
2020-Aug-04 08:33 284 3 gusting 10 18.9
2020-Aug-04 08:28 276 2 gusting 7 18.9
2020-Aug-04 08:23 277 1 gusting 6 18.9
2020-Aug-04 08:18 245 2 gusting 6 18.9
2020-Aug-04 08:13 329 0 gusting 6 18.9
2020-Aug-04 08:08 287 18.3
2020-Aug-04 08:03 315 18.3
2020-Aug-04 07:48 297 18.3
2020-Aug-04 07:33 294 17.8
2020-Aug-04 07:28 294 17.8
2020-Aug-04 07:23 293 17.8
2020-Aug-04 07:18 292 17.8
2020-Aug-04 07:13 294 17.2
2020-Aug-04 07:03 295 1 gusting 6 17.2
2020-Aug-04 06:53 286 16.7
2020-Aug-04 06:48 285 0 gusting 2 16.7
2020-Aug-04 06:43 284 0 gusting 6 16.7
2020-Aug-04 06:33 270 0 gusting 5 16.7
2020-Aug-04 06:28 266 0 gusting 5 16.7
2020-Aug-04 06:23 265 1 gusting 5 16.7
2020-Aug-04 06:18 265 1 gusting 2 16.7
2020-Aug-04 06:13 264 0 gusting 2 16.7
2020-Aug-04 06:08 292 16.1
2020-Aug-04 06:03 292 0 gusting 4 16.1
2020-Aug-04 05:53 284 0 gusting 2 16.1
2020-Aug-04 05:48 285 2 gusting 6 16.1
2020-Aug-04 05:43 272 15.6
2020-Aug-04 05:38 273 15.6
2020-Aug-04 05:33 272 15.6
2020-Aug-04 05:28 273 15.6
2020-Aug-04 05:23 272 0 gusting 2 15.6
2020-Aug-04 05:18 271 15.6
2020-Aug-04 05:13 270 15.6
2020-Aug-04 05:08 269 0 gusting 2 15.6
2020-Aug-04 05:03 269 15.6
2020-Aug-04 04:48 263 0 gusting 2 15.0
2020-Aug-04 04:43 254 15.0
2020-Aug-04 04:38 254 15.0
2020-Aug-04 04:28 272 15.0
2020-Aug-04 04:23 271 15.0
2020-Aug-04 04:18 250 14.4
2020-Aug-04 04:13 250 14.4
2020-Aug-04 04:08 250 14.4
2020-Aug-04 04:03 258 0 gusting 2 13.9
2020-Aug-04 03:58 259 13.9
2020-Aug-04 03:53 256 13.9
2020-Aug-04 03:33 257 13.9
2020-Aug-04 03:28 263 13.9
2020-Aug-04 03:13 265 13.3
2020-Aug-04 03:08 266 13.3
2020-Aug-04 02:58 265 13.9
2020-Aug-04 02:53 266 14.4
2020-Aug-04 02:48 266 14.4
2020-Aug-04 02:43 265 14.4
2020-Aug-04 02:33 265 14.4
2020-Aug-04 02:28 261 14.4
2020-Aug-04 02:18 247 13.9
2020-Aug-04 02:13 242 13.9
2020-Aug-04 02:08 244 13.9
2020-Aug-04 01:58 215 0 gusting 2 13.9
2020-Aug-04 01:53 216 0 gusting 2 13.9
2020-Aug-04 01:48 229 13.9
2020-Aug-04 01:33 228 13.9
2020-Aug-04 01:23 223 13.9
2020-Aug-04 01:18 218 13.9
2020-Aug-04 01:08 221 13.9
2020-Aug-04 01:03 221 0 gusting 6 13.9
2020-Aug-04 00:58 219 1 gusting 5 13.9
2020-Aug-04 00:53 218 0 gusting 4 13.9
2020-Aug-04 00:48 232 0 gusting 2 13.3
2020-Aug-04 00:43 217 0 gusting 4 13.3
2020-Aug-04 00:38 210 0 gusting 4 13.3
2020-Aug-04 00:33 203 1 gusting 5 13.3
2020-Aug-04 00:23 207 13.3
2020-Aug-04 00:18 208 13.3
2020-Aug-04 00:13 217 13.9
2020-Aug-04 00:03 205 13.9
2020-Aug-03 23:58 215 13.9
2020-Aug-03 23:53 214 13.9
2020-Aug-03 23:33 213 13.9
2020-Aug-03 23:28 216 13.9
2020-Aug-03 23:23 207 13.9
2020-Aug-03 23:18 202 13.9
2020-Aug-03 23:13 203 1 gusting 4 13.9
2020-Aug-03 22:53 200 14.4
2020-Aug-03 22:48 197 14.4
2020-Aug-03 22:43 195 14.4
2020-Aug-03 22:33 199 14.4
2020-Aug-03 22:28 193 0 gusting 2 14.4
2020-Aug-03 22:18 196 14.4
2020-Aug-03 22:13 202 0 gusting 4 13.9
2020-Aug-03 22:08 192 13.9
2020-Aug-03 22:03 200 13.9
2020-Aug-03 21:58 198 14.4
2020-Aug-03 21:53 199 14.4
2020-Aug-03 21:43 195 14.4
2020-Aug-03 21:38 193 14.4
2020-Aug-03 21:33 192 15.0
2020-Aug-03 21:28 192 14.4
2020-Aug-03 21:23 197 14.4
2020-Aug-03 21:18 198 15.0
2020-Aug-03 21:13 198 15.0
2020-Aug-03 21:08 198 15.0
2020-Aug-03 21:03 198 15.0
2020-Aug-03 20:53 199 15.0
2020-Aug-03 20:28 205 15.6
2020-Aug-03 20:18 205 16.1
2020-Aug-03 20:13 209 16.1
2020-Aug-03 20:08 206 16.1
2020-Aug-03 19:58 186 16.7
2020-Aug-03 19:53 199 0 gusting 5 16.7
2020-Aug-03 19:48 207 16.7
2020-Aug-03 19:38 198 16.7
2020-Aug-03 19:13 207 17.2
2020-Aug-03 19:03 201 17.2
2020-Aug-03 18:48 211 17.8
2020-Aug-03 18:43 199 17.8
2020-Aug-03 18:38 198 17.8
2020-Aug-03 18:33 192 17.8
2020-Aug-03 18:28 198 0 gusting 2 17.8
2020-Aug-03 18:23 208 1 gusting 6 18.3
2020-Aug-03 18:18 18.3
2020-Aug-03 18:13 200 1 gusting 7 18.3
2020-Aug-03 18:08 211 1 gusting 6 18.3
2020-Aug-03 18:03 201 1 gusting 7 18.3
2020-Aug-03 17:58 190 1 gusting 6 18.3
2020-Aug-03 17:48 153 3 gusting 6 18.3
2020-Aug-03 17:43 213 1 gusting 6 18.9
2020-Aug-03 17:38 188 2 gusting 7 18.9
2020-Aug-03 17:23 205 0 gusting 6 19.4
2020-Aug-03 17:18 171 1 gusting 6 19.4
2020-Aug-03 17:13 157 2 gusting 6 19.4
2020-Aug-03 16:58 184 3 gusting 10 20.0
2020-Aug-03 16:53 181 2 gusting 8 20.0
2020-Aug-03 16:48 183 2 gusting 8 20.6
2020-Aug-03 16:33 194 3 gusting 7 20.6
2020-Aug-03 16:28 186 5 gusting 10 20.6
2020-Aug-03 16:18 184 4 gusting 10 20.6
2020-Aug-03 16:13 197 2 gusting 7 20.6
2020-Aug-03 16:08 214 2 gusting 7 20.6
2020-Aug-03 16:03 195 1 gusting 8 20.6
2020-Aug-03 15:58 223 2 gusting 12 20.6
2020-Aug-03 15:53 217 4 gusting 8 20.6
2020-Aug-03 15:48 204 2 gusting 10 20.6
2020-Aug-03 15:43 205 1 gusting 10 20.6
2020-Aug-03 15:28 199 0 gusting 8 20.6
2020-Aug-03 15:13 234 2 gusting 7 21.1
2020-Aug-03 15:03 203 6 gusting 14 21.7
2020-Aug-03 14:48 187 2 gusting 12 21.7
2020-Aug-03 14:43 186 2 gusting 10 21.7
2020-Aug-03 14:38 219 2 gusting 10 21.1
2020-Aug-03 14:33 217 4 gusting 8 21.7
2020-Aug-03 14:28 204 6 gusting 12 21.7
2020-Aug-03 14:03 196 6 gusting 13 21.7
2020-Aug-03 13:53 217 3 gusting 8 21.7
2020-Aug-03 13:43 185 2 gusting 8 22.2
2020-Aug-03 13:38 196 2 gusting 8 22.2
2020-Aug-03 13:18 208 2 gusting 12 22.2
2020-Aug-03 13:13 218 2 gusting 8 22.2
2020-Aug-03 13:08 215 2 gusting 8 22.2
2020-Aug-03 13:03 207 1 gusting 6 22.8
2020-Aug-03 12:48 246 0 gusting 11 22.8
2020-Aug-03 12:43 233 1 gusting 18 22.2
2020-Aug-03 12:38 235 2 gusting 13 22.2
2020-Aug-03 12:33 245 5 gusting 13 22.2
2020-Aug-03 12:28 276 4 gusting 10 22.2
2020-Aug-03 12:18 260 1 gusting 8 22.2
2020-Aug-03 11:58 182 4 gusting 10 21.7
2020-Aug-03 11:48 230 2 gusting 14 21.7
2020-Aug-03 11:43 236 5 gusting 13 21.7
2020-Aug-03 11:38 229 1 gusting 12 21.7
2020-Aug-03 11:33 215 2 gusting 10 21.7
2020-Aug-03 11:28 209 3 gusting 13 21.1
2020-Aug-03 11:23 267 1 gusting 11 21.1
2020-Aug-03 11:18 255 3 gusting 13 21.1
2020-Aug-03 11:08 222 3 gusting 13 21.7
2020-Aug-03 11:03 205 1 gusting 11 21.7
2020-Aug-03 10:58 209 0 gusting 6 21.7
2020-Aug-03 10:53 165 1 gusting 10 21.7
2020-Aug-03 10:48 206 0 gusting 15 21.1
2020-Aug-03 10:43 198 2 gusting 11 21.1
2020-Aug-03 10:33 256 2 gusting 10 21.1
2020-Aug-03 10:28 267 5 gusting 12 21.1
2020-Aug-03 10:08 257 2 gusting 11 21.1
2020-Aug-03 10:03 210 4 gusting 8 20.6
2020-Aug-03 09:58 205 2 gusting 15 20.6
2020-Aug-03 09:53 214 3 gusting 10 20.6
2020-Aug-03 09:48 202 2 gusting 10 20.6
2020-Aug-03 09:43 190 1 gusting 6 20.6
2020-Aug-03 09:38 223 4 gusting 12 20.6
2020-Aug-03 09:33 275 3 gusting 7 20.6
2020-Aug-03 09:28 204 1 gusting 10 20.6
2020-Aug-03 09:23 219 1 gusting 10 20.6
2020-Aug-03 09:18 237 1 gusting 12 20.0
2020-Aug-03 09:03 213 0 gusting 10 20.0
2020-Aug-03 08:58 225 1 gusting 11 19.4
2020-Aug-03 08:38 226 2 gusting 6 19.4
2020-Aug-03 08:28 246 8 gusting 15 18.9
2020-Aug-03 08:18 186 5 gusting 13 18.9
2020-Aug-03 08:13 223 2 gusting 13 18.3
2020-Aug-03 08:08 293 2 gusting 10 18.3
2020-Aug-03 08:03 229 5 gusting 13 18.3
2020-Aug-03 07:58 199 2 gusting 13 18.3
2020-Aug-03 07:48 255 0 gusting 10 18.3
2020-Aug-03 07:43 230 1 gusting 8 18.3
2020-Aug-03 07:38 268 0 gusting 13 17.8
2020-Aug-03 07:33 255 3 gusting 7 17.8
2020-Aug-03 07:28 234 1 gusting 6 17.8
2020-Aug-03 07:23 271 1 gusting 10 17.8
2020-Aug-03 07:18 275 1 gusting 7 17.8
2020-Aug-03 07:13 245 4 gusting 13 17.2
2020-Aug-03 07:08 278 17.2
2020-Aug-03 07:03 241 2 gusting 13 17.2
2020-Aug-03 06:58 225 17.2
2020-Aug-03 06:48 210 0 gusting 7 16.7
2020-Aug-03 06:43 227 2 gusting 13 16.7
2020-Aug-03 06:38 254 2 gusting 10 16.7
2020-Aug-03 06:33 210 4 gusting 11 16.7
2020-Aug-03 06:28 192 0 gusting 10 16.7
2020-Aug-03 06:23 16.7
2020-Aug-03 06:18 225 2 gusting 11 16.7
2020-Aug-03 06:13 225 6 gusting 14 16.7
2020-Aug-03 06:03 234 2 gusting 10 16.7
2020-Aug-03 05:53 223 1 gusting 15 16.1
2020-Aug-03 05:48 241 1 gusting 15 16.1
2020-Aug-03 05:43 209 2 gusting 12 16.1
2020-Aug-03 05:38 219 3 gusting 8 16.1
2020-Aug-03 05:33 192 2 gusting 13 16.1
2020-Aug-03 05:28 198 0 gusting 8 16.1
2020-Aug-03 05:23 233 1 gusting 8 16.1
2020-Aug-03 05:18 243 1 gusting 8 16.1
2020-Aug-03 05:08 221 0 gusting 7 16.1
2020-Aug-03 05:03 232 0 gusting 6 16.1
2020-Aug-03 04:53 221 0 gusting 5 16.1
2020-Aug-03 04:48 249 0 gusting 2 16.1
2020-Aug-03 04:43 250 1 gusting 5 16.1
2020-Aug-03 04:33 233 0 gusting 6 15.6
2020-Aug-03 04:28 198 0 gusting 8 15.6
2020-Aug-03 04:13 238 1 gusting 4 15.6
2020-Aug-03 04:08 226 0 gusting 4 15.6
2020-Aug-03 04:03 167 3 gusting 8 15.6